Regional Weather Roundup
Issued by NWS Upton, NY

Current Version | Previous Version | Text Only | Print | Product List | Glossary On
Versions: 1 2 3 4 5 6 7 8 9 10 11 12 13 14 15 16 17 18 19 20 21 22 23 24 25 26 27 28 29 30 31 32 33 34 35 36 37 38 39 40 41 42 43 44 45 46 47 48 49 50
000
ASUS41 KOKX 230605
RWROKX

REGIONAL WEATHER ROUNDUP
NATIONAL WEATHER SERVICE NEW YORK NY
200 AM EDT TUE SEP 23 2014

NOTE: "FAIR" INDICATES FEW OR NO CLOUDS BELOW 12,000 FEET WITH NO
SIGNIFICANT WEATHER AND/OR OBSTRUCTIONS TO VISIBILITY.

NYZ071-072-176-178-NJZ106-104-230700-
NEW YORK CITY METRO AREA


CITY           SKY/WX    TMP DP  RH WIND       PRES   REMARKS
CENTRAL PARK   CLEAR     55  38  52 VRB5      30.22R
LAGUARDIA APRT PTCLDY    56  39  53 NW13      30.19R
KENNEDY INTL   PTCLDY    55  37  50 NW10      30.20R
NEWARK/LIBERTY CLEAR     52  40  63 W8        30.21R
BRNX BOT. GARD   N/A     54  37  54 NW3       30.21R
TETERBORO      CLEAR     52  38  58 CALM      30.19R
$$

NYZ177-179-078>081-230700-
LONG ISLAND NEW YORK

CITY           SKY/WX    TMP DP  RH WIND       PRES   REMARKS
FARMINGDALE    CLEAR     52  40  63 CALM      30.19R
ISLIP          CLEAR     51  40  65 CALM      30.16R
SHIRLEY        CLEAR     47  40  76 CALM      30.19R
WESTHAMPTON    NOT AVBL
MONTAUK POINT    N/A     57  41  55 NW13      30.18R
$$

NYZ052-065-067-230700-
HUDSON VALLEY

CITY           SKY/WX    TMP DP  RH WIND       PRES   REMARKS
WHITE PLAINS   CLEAR     48  39  71 CALM      30.18R
NEWBURGH       CLEAR     45  41  87 CALM      30.19R
MONTGOMERY     CLEAR     46  38  73 W7        30.18R
POUGHKEEPSIE   CLEAR     43  39  86 CALM      30.18R
ALBANY         PTCLDY    45  41  86 VRB3      30.20R
$$

NJZ001-105-106-008-010-013-015-019>022-104-230700-
NEW JERSEY

CITY           SKY/WX    TMP DP  RH WIND       PRES   REMARKS
NEWARK/LIBERTY CLEAR     52  40  63 W8        30.21R
TETERBORO      CLEAR     52  38  58 CALM      30.19R
CALDWELL       CLEAR     47  39  74 CALM      30.21R
MORRISTOWN     CLEAR     43  39  87 CALM      30.21R
SOMERVILLE     CLEAR     43  40  89 NW3       30.20R
LINDEN         FAIR      56  43  63 W5        30.23R
SUSSEX         CLEAR     44  39  82 CALM      30.21R
ANDOVER          N/A     41  40  96 CALM      30.22R
TRENTON        CLEAR     49  41  74 NW3       30.22R
MILLVILLE      MOCLDY    52  43  71 NW3       30.22R
ATLANTIC CITY  MOCLDY    51  44  77 CALM      30.21R
WRIGHTSTOWN    PTCLDY    49  41  73 N3        30.20R
TOMS RIVER     PTCLDY    45  39  81 CALM      30.22R
BELMAR         PTCLDY    50  37  62 NW5       30.20S
$$

PAZ047>061-062-071-230700-
EASTERN PENNSYLVANIA

CITY           SKY/WX    TMP DP  RH WIND       PRES   REMARKS
PHILADELPHIA   MOCLDY    55  40  56 NW5       30.24R
ALLENTOWN      CLEAR     50  38  63 W3        30.23R
SCRANTON       CLEAR     47  39  74 CALM      30.23R
$$

CTZ002-004>006-009-010-012-RIZ004-006-007-MAZ004-011-015-230700-
SOUTHERN NEW ENGLAND
 IN CT

CITY           SKY/WX    TMP DP  RH WIND       PRES   REMARKS
BRADLEY INTL   CLEAR     48  40  73 W6        30.15R
HARTFORD       CLEAR     52  39  61 SW7       30.16R
DANBURY        CLEAR     43  40  89 CALM      30.19R
WTRBRY/OXFORD  CLEAR     43  36  75 CALM      30.18S
BRIDGEPORT     CLEAR     50  41  71 NW6       30.18R
MERIDEN        CLEAR     42  39  89 CALM      30.17R
NEW HAVEN      CLEAR     55  42  61 VRB5      30.18R
CHESTER        FAIR      46  41  81 NW3       30.17S
GROTON         CLEAR     48  40  73 NW5       30.15R
WILLIMANTIC    CLEAR     43  40  89 N3        30.16R

 IN RI

CITY           SKY/WX    TMP DP  RH WIND       PRES   REMARKS
PROVIDENCE     CLEAR     47  40  76 W7        30.15R
BLOCK ISLAND   PTCLDY    54  37  54 NW8       30.15R
WESTERLY       CLEAR     46  40  79 W3        30.16R

 IN MA

CITY           SKY/WX    TMP DP  RH WIND       PRES   REMARKS
BOSTON         CLEAR     53  38  56 W5        30.13R
WORCESTER      CLEAR     45  37  73 NW7       30.13R
WESTFIELD      CLEAR     45  39  79 CALM      30.15R
PROVINCETOWN   CLEAR     55  37  50 NW18G24   30.12R
NANTUCKET      CLEAR     55  41  59 NW15      30.11R
$$

ANZ330-335-338-340-345-350-353-355-230700-
COASTAL MARINE OBSERVATIONS


STATION/POSITION TIME  SKY/WX   TEMP    WIND        PRES    VSBY  WAVE
                                AIR SEA DIR/SP/G                  HT/PER
                 (UTC)          (F)     (DEG/KT/KT) (MB)    (MI)  (FT/S)
NY HARB ENTRANCE 0600            59 69  340/ 16/ 21 1022.3          3/10
4S FIRE IS       0600               69                N/A           3/ 9
20S FIRE ISLAND  0500            59 68  340/ 16/ 19 1021.3          4/ 5
23SW MTP         0600                                 N/A           5/ 9
HUDSON CANYON    0600            61 70  340/ 17/ 21 1020.9          6/ 6
EXECUTION ROCKS  0600            57 69  310/  8/ 12   N/A
WESTERN LI SOUND 0600            57     290/  8/ 12   N/A           0
CENTRAL LI SOUND 0500            57 69  310/ 14/ 19   N/A           2/ 4
EASTERN LI SOUND 0500            56 67  300/ 12/ 16   N/A
ROBBINS REEF     0600            55     300/ 11/ 15 1021.3
$$


>>>>>>>>>>>>>>>>>>>>>>>>>>>> KEY <<<<<<<<<<<<<<<<<<<<<<<<<<<
>                                                          <
>     SKY/WX - SKY CONDITION/PRESENT WEATHER               <
>     TMP    - TEMPERATURE IN FAHRENHEIT                   <
>     DP     - DEWPOINT IN FAHRENHEIT                      <
>     RH     - RELATIVE HUMIDITY IN PERCENT                <
>     WIND   - DIRECTION AND SPEED IN MPH                  <
>     PRES   - MEAN SEA LEVEL PRESSURE IN INCHES OF HG     <
>     WCI    - WIND CHILL INDEX                            <
>     VSB    - VISIBILITY IN MILES                         <
>     HX     - HEAT INDEX                                  <
>     TC     - TEMPERATURE IN CELSIUS                      <
>     VRB    - VARIABLE WIND DIRECTION                     <
>                                                          <
>>>>>>>>>>>>>>>>>>>>>>>>>>>> KEY <<<<<<<<<<<<<<<<<<<<<<<<<<<





USA.gov is the U.S. government's official web portal to all federal, state and local government web resources and services.